User: anonymous
Location: Unspecified
(0.0000°N, 0.0000°E)
Time: 02:36:36
(UTC+00:00)
Language:

Optus B3 - Orbit

View from above orbital plane
View from above orbital plane
View from above satellite
View from above satellite

Ground track
Ground track

The orbit data is extracted from the following two-line orbital elements,

1 23227U 94055A   14209.46528075 -.00000090  00000-0  10000-3 0  5183
2 23227 005.6037 058.9155 0004764 074.1242 144.5262 01.00272836 72915
Epoch (UTC): 28 July 2014 11:10:00
Eccentricity: 0.0004764
inclination: 5.6037°
perigee height: 35766 km
apogee height: 35806 km
right ascension of ascending node: 58.9155°
argument of perigee: 74.1242°
revolutions per day: 1.00272836
mean anomaly at epoch: 144.5262°
orbit number at epoch: 7291

The dashed part of the orbit path shows where the satellite is in the earth's shadow,  

DLR